�������l�o���
Date,Time,MP-1(��Sv/h),MP-2(��Sv/h),MP-3(��Sv/h),MP-4(��Sv/h),MP-5(��Sv/h),MP-6(��Sv/h),MP-7(��Sv/h),MP-8(��Sv/h),����,����(m/s),���J
2022/04/24,00:00,0.572,0.849,0.544,1.032,0.730,0.346,0.598,0.565,�k�k��,4.6,��
2022/04/24,00:10,0.572,0.850,0.543,1.033,0.730,0.347,0.599,0.566,�k��,2.6,��
2022/04/24,00:20,0.572,0.850,0.544,1.031,0.732,0.347,0.597,0.566,�k,1.5,��
2022/04/24,00:30,0.572,0.849,0.544,1.034,0.730,0.346,0.598,0.566,�k��,1.7,��
2022/04/24,00:40,0.572,0.850,0.544,1.033,0.731,0.347,0.600,0.565,�k,1.7,��
2022/04/24,00:50,0.572,0.847,0.544,1.034,0.732,0.347,0.599,0.565,�k,1.2,��
2022/04/24,01:00,0.571,0.848,0.545,1.033,0.730,0.347,0.599,0.565,�k,2.2,��
2022/04/24,01:10,0.572,0.849,0.544,1.032,0.730,0.347,0.598,0.563,�k,3.4,��
2022/04/24,01:20,0.572,0.846,0.543,1.031,0.732,0.345,0.598,0.565,�k,2.8,��
2022/04/24,01:30,0.570,0.847,0.544,1.033,0.729,0.347,0.598,0.564,�k�k��,2.3,��
2022/04/24,01:40,0.573,0.848,0.543,1.033,0.730,0.347,0.599,0.565,�k�k��,4.0,��
2022/04/24,01:50,0.572,0.849,0.544,1.033,0.729,0.346,0.598,0.564,�k,3.1,��
2022/04/24,02:00,0.572,0.848,0.543,1.031,0.730,0.346,0.599,0.564,�k�k��,3.1,��
2022/04/24,02:10,0.574,0.848,0.545,1.032,0.730,0.347,0.598,0.565,�k�k��,3.5,��
2022/04/24,02:20,0.571,0.848,0.544,1.031,0.730,0.346,0.598,0.565,�k�k��,4.6,��
2022/04/24,02:30,0.573,0.847,0.543,1.030,0.732,0.345,0.601,0.565,�k�k��,4.7,��
2022/04/24,02:40,0.571,0.850,0.544,1.032,0.731,0.346,0.599,0.565,�k�k��,4.1,��
2022/04/24,02:50,0.572,0.849,0.544,1.034,0.732,0.347,0.599,0.564,�k�k��,4.4,��
2022/04/24,03:00,0.571,0.849,0.545,1.032,0.731,0.347,0.598,0.564,�k�k��,4.0,��
2022/04/24,03:10,0.572,0.849,0.545,1.032,0.731,0.347,0.598,0.566,�k�k��,3.7,��
2022/04/24,03:20,0.574,0.848,0.543,1.033,0.731,0.345,0.600,0.563,�k�k��,3.7,��
2022/04/24,03:30,0.573,0.848,0.544,1.030,0.731,0.346,0.598,0.566,�k�k��,3.5,��
2022/04/24,03:40,0.572,0.850,0.544,1.031,0.731,0.345,0.601,0.565,�k��,3.4,��
2022/04/24,03:50,0.573,0.850,0.545,1.032,0.732,0.347,0.598,0.565,�k�k��,3.0,��
2022/04/24,04:00,0.571,0.848,0.545,1.031,0.731,0.346,0.599,0.567,�k�k��,2.6,��
2022/04/24,04:10,0.571,0.848,0.543,1.033,0.731,0.347,0.599,0.565,�k��,1.9,��
2022/04/24,04:20,0.570,0.846,0.544,1.032,0.731,0.346,0.599,0.566,���k��,1.4,��
2022/04/24,04:30,0.573,0.847,0.544,1.031,0.731,0.346,0.599,0.565,-,CALM,��
2022/04/24,04:40,0.572,0.847,0.544,1.032,0.729,0.347,0.598,0.566,-,CALM,��
2022/04/24,04:50,0.572,0.850,0.546,1.032,0.731,0.346,0.599,0.564,��,0.6,��
2022/04/24,05:00,0.571,0.847,0.544,1.033,0.731,0.347,0.599,0.565,-,CALM,��
2022/04/24,05:10,0.571,0.849,0.545,1.033,0.732,0.347,0.599,0.566,��,0.6,��
2022/04/24,05:20,0.572,0.847,0.545,1.035,0.732,0.346,0.598,0.565,��,1.5,��
2022/04/24,05:30,0.572,0.850,0.544,1.033,0.730,0.348,0.601,0.566,��,0.9,��
2022/04/24,05:40,0.571,0.850,0.544,1.036,0.732,0.348,0.599,0.564,��,1.5,��
2022/04/24,05:50,0.572,0.850,0.546,1.033,0.732,0.346,0.598,0.565,��,2.6,��
2022/04/24,06:00,0.571,0.849,0.545,1.034,0.731,0.347,0.599,0.565,��쐼,2.9,��
2022/04/24,06:10,0.572,0.847,0.545,1.035,0.730,0.346,0.601,0.566,��쐼,3.7,��
2022/04/24,06:20,0.572,0.850,0.543,1.034,0.730,0.346,0.598,0.564,��쐼,3.7,��
2022/04/24,06:30,0.573,0.851,0.545,1.032,0.730,0.348,0.600,0.566,��쐼,3.5,��
2022/04/24,06:40,0.572,0.851,0.546,1.033,0.731,0.347,0.601,0.564,�쐼,2.0,��
2022/04/24,06:50,0.572,0.852,0.545,1.035,0.733,0.346,0.600,0.566,��쓌,0.9,��
2022/04/24,07:00,0.573,0.853,0.545,1.033,0.731,0.346,0.599,0.564,��,1.5,��
2022/04/24,07:10,0.573,0.850,0.545,1.033,0.731,0.346,0.600,0.564,�쓌,0.6,��
2022/04/24,07:20,0.573,0.850,0.545,1.034,0.732,0.345,0.600,0.565,�쓌,1.2,��
2022/04/24,07:30,0.574,0.849,0.546,1.033,0.732,0.344,0.600,0.566,��쓌,1.1,��
2022/04/24,07:40,0.573,0.849,0.545,1.034,0.732,0.343,0.600,0.565,��,1.1,��
2022/04/24,07:50,0.572,0.851,0.544,1.034,0.733,0.345,0.599,0.567,��쓌,1.7,��
2022/04/24,08:00,0.573,0.849,0.546,1.034,0.732,0.346,0.600,0.566,��쓌,1.7,��
2022/04/24,08:10,0.573,0.849,0.546,1.036,0.734,0.346,0.598,0.565,��,1.7,��
2022/04/24,08:20,0.573,0.849,0.545,1.034,0.731,0.346,0.600,0.566,��,2.0,��
2022/04/24,08:30,0.574,0.849,0.545,1.036,0.732,0.344,0.599,0.564,��,2.3,��
2022/04/24,08:40,0.574,0.848,0.545,1.035,0.731,0.345,0.598,0.565,��,2.3,��
2022/04/24,08:50,0.575,0.849,0.544,1.034,0.731,0.346,0.597,0.564,��쓌,2.9,��
2022/04/24,09:00,0.573,0.852,0.544,1.034,0.731,0.347,0.598,0.563,��쓌,4.1,��
2022/04/24,09:10,0.574,0.850,0.545,1.034,0.731,0.345,0.599,0.564,��쓌,4.8,��
2022/04/24,09:20,0.572,0.849,0.544,1.035,0.732,0.346,0.598,0.564,��쓌,4.8,��
2022/04/24,09:30,0.573,0.850,0.545,1.035,0.731,0.347,0.597,0.564,��쓌,4.4,��
2022/04/24,09:40,0.572,0.851,0.543,1.035,0.732,0.345,0.598,0.563,�쓌,5.2,��
2022/04/24,09:50,0.573,0.850,0.543,1.033,0.731,0.346,0.599,0.563,��쓌,4.8,��
2022/04/24,10:00,0.573,0.852,0.545,1.034,0.732,0.346,0.597,0.563,��쓌,4.4,��
2022/04/24,10:10,0.572,0.853,0.544,1.034,0.733,0.344,0.598,0.562,��쓌,2.8,��
2022/04/24,10:20,0.572,0.849,0.543,1.036,0.734,0.345,0.599,0.564,��쓌,3.2,��
2022/04/24,10:30,0.571,0.851,0.543,1.036,0.730,0.347,0.599,0.563,��쓌,3.8,��
2022/04/24,10:40,0.573,0.851,0.543,1.036,0.732,0.347,0.599,0.563,��쓌,3.8,��
2022/04/24,10:50,0.573,0.851,0.543,1.038,0.731,0.346,0.598,0.564,��쓌,2.9,��
2022/04/24,11:00,0.573,0.852,0.544,1.035,0.733,0.345,0.598,0.564,�쓌,2.6,��
2022/04/24,11:10,0.573,0.851,0.545,1.036,0.731,0.345,0.597,0.564,��쓌,2.3,��
2022/04/24,11:20,0.574,0.851,0.546,1.037,0.731,0.347,0.600,0.562,�쓌,2.9,��
2022/04/24,11:30,0.573,0.850,0.545,1.035,0.732,0.346,0.600,0.563,��쓌,3.2,��
2022/04/24,11:40,0.573,0.852,0.545,1.037,0.731,0.346,0.600,0.563,��쓌,2.8,��
2022/04/24,11:50,0.572,0.852,0.546,1.036,0.735,0.347,0.599,0.563,�쓌,3.2,��
2022/04/24,12:00,0.574,0.852,0.545,1.036,0.733,0.347,0.599,0.564,��쓌,3.5,��
2022/04/24,12:10,0.573,0.852,0.546,1.037,0.734,0.348,0.598,0.565,�쓌,2.3,��
2022/04/24,12:20,0.573,0.854,0.544,1.035,0.732,0.347,0.599,0.564,�쓌,2.6,��
2022/04/24,12:30,0.573,0.852,0.544,1.036,0.734,0.346,0.599,0.565,�쓌,3.3,��
2022/04/24,12:40,0.574,0.853,0.543,1.037,0.731,0.348,0.599,0.564,�쓌,3.6,��
2022/04/24,12:50,0.574,0.853,0.543,1.038,0.733,0.347,0.600,0.564,�쓌,3.0,��
2022/04/24,13:00,0.574,0.851,0.545,1.039,0.733,0.346,0.598,0.565,��쓌,3.0,��
2022/04/24,13:10,0.573,0.852,0.544,1.037,0.733,0.347,0.600,0.565,��쓌,2.9,��
2022/04/24,13:20,0.574,0.852,0.543,1.039,0.734,0.346,0.599,0.563,��쓌,2.9,��
2022/04/24,13:30,0.574,0.851,0.544,1.037,0.734,0.345,0.599,0.563,��쓌,2.3,��
2022/04/24,13:40,0.574,0.853,0.544,1.038,0.731,0.347,0.599,0.564,��쓌,2.3,��
2022/04/24,13:50,0.573,0.851,0.544,1.040,0.734,0.346,0.599,0.565,�쓌,3.4,��
2022/04/24,14:00,0.573,0.851,0.546,1.039,0.734,0.348,0.601,0.564,�쓌,2.9,��
2022/04/24,14:10,0.575,0.850,0.546,1.037,0.734,0.346,0.602,0.564,���쓌,2.6,��
2022/04/24,14:20,0.573,0.855,0.546,1.036,0.732,0.347,0.599,0.565,���쓌,2.9,��
2022/04/24,14:30,0.575,0.854,0.546,1.040,0.735,0.348,0.599,0.565,�쓌,1.9,��
2022/04/24,14:40,0.574,0.852,0.546,1.036,0.733,0.348,0.599,0.564,�쓌,1.5,��
2022/04/24,14:50,0.573,0.853,0.547,1.039,0.734,0.348,0.599,0.565,�쓌,2.0,��
2022/04/24,15:00,0.574,0.855,0.546,1.039,0.733,0.347,0.600,0.565,���쓌,1.9,��
2022/04/24,15:10,0.576,0.853,0.547,1.037,0.734,0.347,0.599,0.563,�쓌,2.0,��
2022/04/24,15:20,0.576,0.853,0.546,1.039,0.734,0.348,0.600,0.565,���쓌,2.0,�L
2022/04/24,15:30,0.575,0.855,0.547,1.039,0.734,0.347,0.600,0.565,���쓌,0.9,�L
2022/04/24,15:40,0.575,0.854,0.548,1.038,0.733,0.347,0.599,0.566,�쓌,2.6,��
2022/04/24,15:50,0.577,0.854,0.546,1.040,0.736,0.348,0.599,0.564,���쓌,2.6,��
2022/04/24,16:00,0.575,0.855,0.546,1.038,0.733,0.348,0.601,0.565,��,2.3,��
2022/04/24,16:10,0.576,0.855,0.547,1.036,0.732,0.347,0.600,0.565,���k��,1.2,��
2022/04/24,16:20,0.574,0.854,0.548,1.040,0.734,0.348,0.598,0.565,�쓌,1.5,��
2022/04/24,16:30,0.575,0.858,0.547,1.039,0.735,0.348,0.599,0.565,�쓌,2.2,��
2022/04/24,16:40,0.575,0.858,0.546,1.039,0.736,0.349,0.599,0.566,��쓌,2.3,��
2022/04/24,16:50,0.577,0.856,0.548,1.038,0.734,0.348,0.599,0.564,��,1.1,��
2022/04/24,17:00,0.578,0.858,0.549,1.041,0.736,0.346,0.599,0.565,��쓌,1.2,�L
2022/04/24,17:10,0.578,0.858,0.548,1.040,0.734,0.349,0.598,0.566,��쓌,3.4,�L
2022/04/24,17:20,0.577,0.858,0.549,1.040,0.735,0.348,0.601,0.567,��쓌,2.9,��
2022/04/24,17:30,0.576,0.857,0.548,1.038,0.736,0.347,0.599,0.567,��쐼,2.0,��
2022/04/24,17:40,0.576,0.858,0.549,1.039,0.733,0.351,0.599,0.566,��,2.8,��
2022/04/24,17:50,0.578,0.856,0.549,1.039,0.734,0.348,0.600,0.567,��쐼,2.0,��
2022/04/24,18:00,0.576,0.859,0.547,1.039,0.735,0.349,0.599,0.566,��쐼,0.9,��
2022/04/24,18:10,0.577,0.857,0.550,1.039,0.737,0.349,0.599,0.567,��,1.7,��
2022/04/24,18:20,0.578,0.855,0.549,1.039,0.735,0.350,0.600,0.568,��,1.7,��
2022/04/24,18:30,0.578,0.857,0.548,1.039,0.735,0.349,0.600,0.566,��쐼,1.5,��
2022/04/24,18:40,0.577,0.858,0.548,1.039,0.736,0.349,0.602,0.567,��쐼,2.0,��
2022/04/24,18:50,0.577,0.859,0.548,1.039,0.736,0.349,0.601,0.566,��,3.6,��
2022/04/24,19:00,0.577,0.857,0.548,1.039,0.735,0.349,0.601,0.568,��쓌,4.1,��
2022/04/24,19:10,0.578,0.855,0.548,1.037,0.736,0.349,0.600,0.568,��,5.8,��
2022/04/24,19:20,0.577,0.857,0.549,1.038,0.736,0.350,0.600,0.568,��,6.7,��
2022/04/24,19:30,0.578,0.857,0.549,1.039,0.736,0.349,0.601,0.567,��,7.8,��
2022/04/24,19:40,0.576,0.856,0.549,1.037,0.737,0.350,0.601,0.568,��,7.1,��
2022/04/24,19:50,0.578,0.856,0.550,1.038,0.738,0.349,0.601,0.568,��,6.0,��
2022/04/24,20:00,0.577,0.856,0.549,1.039,0.736,0.348,0.602,0.567,��,6.4,��
2022/04/24,20:10,0.577,0.856,0.548,1.038,0.736,0.349,0.603,0.568,��,6.5,��
2022/04/24,20:20,0.578,0.857,0.548,1.040,0.737,0.350,0.603,0.569,��,4.8,��
2022/04/24,20:30,0.578,0.857,0.550,1.039,0.739,0.348,0.600,0.568,��,4.3,��
2022/04/24,20:40,0.579,0.856,0.548,1.038,0.735,0.348,0.601,0.568,��,4.7,��
2022/04/24,20:50,0.578,0.858,0.549,1.038,0.735,0.350,0.603,0.568,��쐼,3.9,��
2022/04/24,21:00,0.577,0.853,0.548,1.038,0.738,0.351,0.601,0.568,��,5.6,��
2022/04/24,21:10,0.576,0.855,0.549,1.038,0.736,0.350,0.602,0.567,��,4.9,��
2022/04/24,21:20,0.578,0.854,0.548,1.040,0.735,0.351,0.601,0.568,��,5.1,��
2022/04/24,21:30,0.578,0.857,0.547,1.038,0.737,0.350,0.601,0.568,��쐼,5.1,��
2022/04/24,21:40,0.579,0.856,0.549,1.038,0.737,0.349,0.602,0.568,��쐼,4.3,��
2022/04/24,21:50,0.576,0.857,0.549,1.041,0.737,0.350,0.601,0.567,��쐼,2.8,��
2022/04/24,22:00,0.578,0.857,0.549,1.040,0.738,0.349,0.601,0.566,��쐼,1.4,��
2022/04/24,22:10,0.577,0.857,0.548,1.039,0.736,0.350,0.602,0.568,���쐼,1.2,��
2022/04/24,22:20,0.579,0.856,0.549,1.040,0.738,0.348,0.603,0.567,-,CALM,��
2022/04/24,22:30,0.579,0.856,0.548,1.042,0.738,0.350,0.601,0.569,�k,1.4,��
2022/04/24,22:40,0.577,0.857,0.550,1.038,0.738,0.350,0.601,0.568,�k,1.4,��
2022/04/24,22:50,0.578,0.856,0.548,1.038,0.738,0.350,0.603,0.568,�k,1.4,��
2022/04/24,23:00,0.578,0.857,0.548,1.041,0.737,0.351,0.601,0.567,�k�k��,2.8,��
2022/04/24,23:10,0.576,0.855,0.548,1.039,0.737,0.350,0.601,0.568,�k�k��,4.6,��
2022/04/24,23:20,0.578,0.856,0.549,1.038,0.737,0.348,0.602,0.568,�k�k��,4.4,��
2022/04/24,23:30,0.576,0.855,0.546,1.040,0.737,0.350,0.602,0.567,�k�k��,4.6,��
2022/04/24,23:40,0.576,0.855,0.547,1.039,0.738,0.351,0.601,0.569,�k�k��,4.3,��
2022/04/24,23:50,0.576,0.855,0.549,1.040,0.735,0.349,0.601,0.567,�k,4.4,��
